Time,TemperatureF,DewpointF,PressureIn,WindDirection,WindDirectionDegrees,WindSpeedMPH,WindSpeedGustMPH,Humidity,HourlyPrecipIn,Conditions,Clouds,dailyrainin,SolarRadiationWatts/m^2,SoftwareType,DateUTC
2013-02-13 00:00:00,44.7,42.5,29.78,East,98,0.0,0.0,92,0.00,,---,0.00,0.00,VWS V14.00,2013-02-13 06:00:00,
2013-02-13 00:05:00,44.6,42.4,29.77,East,98,0.0,0.0,92,0.00,,---,0.01,0.00,VWS V14.00,2013-02-13 06:05:00,
2013-02-13 00:10:00,44.6,42.4,29.78,East,98,0.0,0.0,92,0.00,,---,0.01,0.00,VWS V14.00,2013-02-13 06:10:00,
2013-02-13 00:15:00,44.5,42.3,29.78,East,98,0.0,0.0,92,0.00,,---,0.01,0.00,VWS V14.00,2013-02-13 06:15:00,
2013-02-13 00:20:00,44.5,42.3,29.78,East,98,0.0,0.0,92,0.00,,---,0.01,0.00,VWS V14.00,2013-02-13 06:20:00,
2013-02-13 00:25:00,44.5,42.6,29.78,East,98,0.0,0.0,93,0.00,,---,0.01,0.00,VWS V14.00,2013-02-13 06:25:00,
2013-02-13 00:30:00,44.5,42.6,29.78,East,98,0.0,0.0,93,0.00,,---,0.01,0.00,VWS V14.00,2013-02-13 06:30:00,
2013-02-13 00:35:00,44.5,42.6,29.78,East,98,0.0,0.0,93,0.00,,---,0.01,0.00,VWS V14.00,2013-02-13 06:35:00,
2013-02-13 00:40:00,44.5,42.6,29.78,ENE,67,0.0,0.0,93,0.00,,---,0.01,0.00,VWS V14.00,2013-02-13 06:40:00,
2013-02-13 00:45:00,44.5,42.6,29.78,ENE,67,0.0,0.0,93,0.00,,---,0.01,0.00,VWS V14.00,2013-02-13 06:45:00,
2013-02-13 00:50:00,44.5,42.6,29.78,NNE,28,0.0,0.0,93,0.00,,---,0.02,0.00,VWS V14.00,2013-02-13 06:50:00,
2013-02-13 00:55:00,44.4,42.8,29.77,NNE,27,0.0,0.0,94,0.00,,---,0.02,0.00,VWS V14.00,2013-02-13 06:55:00,
2013-02-13 01:00:00,44.4,42.8,29.77,NNE,26,0.0,0.0,94,0.00,,---,0.02,0.00,VWS V14.00,2013-02-13 07:00:00,
2013-02-13 01:05:00,44.4,42.8,29.78,NNE,19,0.0,0.0,94,0.00,,---,0.02,0.00,VWS V14.00,2013-02-13 07:05:00,
2013-02-13 01:10:00,44.4,42.8,29.77,North,9,0.0,0.0,94,0.00,,---,0.02,0.00,VWS V14.00,2013-02-13 07:10:00,
2013-02-13 01:15:00,44.3,42.7,29.77,NW,325,0.0,3.0,94,0.00,,---,0.03,0.00,VWS V14.00,2013-02-13 07:15:00,
2013-02-13 01:20:00,44.3,42.7,29.77,WNW,302,0.0,3.0,94,0.00,,---,0.03,0.00,VWS V14.00,2013-02-13 07:20:00,
2013-02-13 01:25:00,44.3,42.7,29.77,WNW,303,0.0,3.0,94,0.00,,---,0.03,0.00,VWS V14.00,2013-02-13 07:25:00,
2013-02-13 01:30:00,44.2,42.6,29.76,NW,308,0.0,0.0,94,0.00,,---,0.03,0.00,VWS V14.00,2013-02-13 07:30:00,
2013-02-13 01:35:00,44.2,42.6,29.77,NW,308,0.0,0.0,94,0.00,,---,0.04,0.00,VWS V14.00,2013-02-13 07:35:00,
2013-02-13 01:40:00,44.2,42.6,29.77,NW,308,0.0,0.0,94,0.00,,---,0.04,0.00,VWS V14.00,2013-02-13 07:40:00,
2013-02-13 01:45:00,44.2,42.6,29.76,NW,308,0.0,0.0,94,0.00,,---,0.04,0.00,VWS V14.00,2013-02-13 07:45:00,
2013-02-13 01:50:00,44.2,42.6,29.76,NW,308,0.0,0.0,94,0.00,,---,0.04,0.00,VWS V14.00,2013-02-13 07:50:00,
2013-02-13 01:55:00,44.2,42.6,29.76,NW,308,0.0,0.0,94,0.00,,---,0.04,0.00,VWS V14.00,2013-02-13 07:55:00,
2013-02-13 02:00:00,44.2,42.9,29.76,NW,308,0.0,0.0,95,0.00,,---,0.04,0.00,VWS V14.00,2013-02-13 08:00:00,
2013-02-13 02:05:00,44.2,42.9,29.76,NW,308,0.0,0.0,95,0.00,,---,0.04,0.00,VWS V14.00,2013-02-13 08:05:00,
2013-02-13 02:10:00,44.2,42.9,29.76,NW,308,0.0,0.0,95,0.00,,---,0.04,0.00,VWS V14.00,2013-02-13 08:10:00,
2013-02-13 02:15:00,44.2,42.9,29.76,NW,308,0.0,0.0,95,0.00,,---,0.04,0.00,VWS V14.00,2013-02-13 08:15:00,
2013-02-13 02:20:00,44.2,42.9,29.76,NNW,336,0.0,2.0,95,0.00,,---,0.04,0.00,VWS V14.00,2013-02-13 08:20:00,
2013-02-13 02:25:00,44.2,42.9,29.76,NNW,338,0.0,2.0,95,0.00,,---,0.04,0.00,VWS V14.00,2013-02-13 08:25:00,
2013-02-13 02:30:00,44.2,42.9,29.76,NW,311,0.0,0.0,95,0.00,,---,0.04,0.00,VWS V14.00,2013-02-13 08:30:00,
2013-02-13 02:35:00,44.2,42.9,29.75,NW,325,0.0,3.0,95,0.00,,---,0.05,0.00,VWS V14.00,2013-02-13 08:35:00,
2013-02-13 02:40:00,44.2,42.9,29.75,NW,310,0.0,3.0,95,0.00,,---,0.05,0.00,VWS V14.00,2013-02-13 08:40:00,
2013-02-13 02:45:00,44.2,42.9,29.75,NW,318,0.0,3.0,95,0.00,,---,0.05,0.00,VWS V14.00,2013-02-13 08:45:00,
2013-02-13 02:50:00,44.2,42.9,29.75,NNW,342,0.0,3.0,95,0.00,,---,0.05,0.00,VWS V14.00,2013-02-13 08:50:00,
2013-02-13 02:55:00,44.2,42.9,29.75,NNW,334,0.0,3.0,95,0.00,,---,0.05,0.00,VWS V14.00,2013-02-13 08:55:00,
2013-02-13 03:00:00,44.2,42.9,29.75,NNW,346,0.0,0.0,95,0.00,,---,0.05,0.00,VWS V14.00,2013-02-13 09:00:00,
2013-02-13 03:05:00,44.2,42.9,29.75,NW,314,0.0,0.0,95,0.00,,---,0.05,0.00,VWS V14.00,2013-02-13 09:05:00,
2013-02-13 03:10:00,44.2,42.9,29.75,NNW,338,0.0,3.0,95,0.00,,---,0.05,0.00,VWS V14.00,2013-02-13 09:10:00,
2013-02-13 03:15:00,44.2,42.9,29.75,NNE,32,0.0,4.0,95,0.00,,---,0.05,0.00,VWS V14.00,2013-02-13 09:15:00,
2013-02-13 03:20:00,44.0,42.7,29.75,NNW,331,0.0,5.0,95,0.00,,---,0.05,0.00,VWS V14.00,2013-02-13 09:20:00,
2013-02-13 03:25:00,43.8,42.5,29.75,NW,306,0.0,6.0,95,0.00,,---,0.05,0.00,VWS V14.00,2013-02-13 09:25:00,
2013-02-13 03:30:00,43.7,42.4,29.76,NW,324,0.0,1.0,95,0.00,,---,0.06,0.00,VWS V14.00,2013-02-13 09:30:00,
2013-02-13 03:35:00,43.6,42.3,29.76,NW,315,4.0,4.0,95,0.00,,---,0.06,0.00,VWS V14.00,2013-02-13 09:35:00,
2013-02-13 03:40:00,43.4,42.1,29.76,WNW,301,0.0,6.0,95,0.00,,---,0.06,0.00,VWS V14.00,2013-02-13 09:40:00,
2013-02-13 03:45:00,43.2,41.9,29.77,NNW,340,0.0,6.0,95,0.00,,---,0.06,0.00,VWS V14.00,2013-02-13 09:45:00,
2013-02-13 03:50:00,43.0,41.7,29.77,NNE,27,0.0,7.0,95,0.00,,---,0.06,0.00,VWS V14.00,2013-02-13 09:50:00,
2013-02-13 03:55:00,42.8,41.5,29.78,North,360,0.0,7.0,95,0.00,,---,0.06,0.00,VWS V14.00,2013-02-13 09:55:00,
2013-02-13 04:00:00,42.8,41.5,29.77,NE,34,0.0,1.0,95,0.00,,---,0.06,0.00,VWS V14.00,2013-02-13 10:00:00,
2013-02-13 04:05:00,42.7,41.4,29.77,NE,55,0.0,7.0,95,0.00,,---,0.06,0.00,VWS V14.00,2013-02-13 10:05:00,
2013-02-13 04:10:00,42.7,41.4,29.77,WNW,294,0.0,7.0,95,0.00,,---,0.06,0.00,VWS V14.00,2013-02-13 10:10:00,
2013-02-13 04:15:00,42.7,41.4,29.77,NE,34,0.0,7.0,95,0.00,,---,0.06,0.00,VWS V14.00,2013-02-13 10:15:00,
2013-02-13 04:20:00,42.7,41.4,29.77,NNE,19,0.0,7.0,95,0.00,,---,0.06,0.00,VWS V14.00,2013-02-13 10:20:00,
2013-02-13 04:25:00,42.7,41.4,29.78,NNW,329,0.0,7.0,95,0.00,,---,0.06,0.00,VWS V14.00,2013-02-13 10:25:00,
2013-02-13 04:30:00,42.6,41.3,29.78,WNW,294,0.0,6.0,95,0.00,,---,0.07,0.00,VWS V14.00,2013-02-13 10:30:00,
2013-02-13 04:35:00,42.5,41.2,29.78,NNE,31,0.0,6.0,95,0.00,,---,0.07,0.00,VWS V14.00,2013-02-13 10:35:00,
2013-02-13 04:40:00,42.4,41.1,29.79,NW,321,0.0,6.0,95,0.00,,---,0.07,0.00,VWS V14.00,2013-02-13 10:40:00,
2013-02-13 04:45:00,42.4,41.1,29.80,ENE,59,0.0,6.0,95,0.00,,---,0.07,0.00,VWS V14.00,2013-02-13 10:45:00,
2013-02-13 04:50:00,42.4,41.1,29.80,NW,318,0.0,6.0,95,0.00,,---,0.07,0.00,VWS V14.00,2013-02-13 10:50:00,
2013-02-13 04:55:00,42.3,41.0,29.81,NW,310,0.0,6.0,95,0.00,,---,0.07,0.00,VWS V14.00,2013-02-13 10:55:00,
2013-02-13 05:00:00,42.4,41.1,29.81,North,11,0.0,0.0,95,0.00,,---,0.07,0.00,VWS V14.00,2013-02-13 11:00:00,
2013-02-13 05:05:00,42.4,41.1,29.82,WNW,291,0.0,0.0,95,0.00,,---,0.07,0.00,VWS V14.00,2013-02-13 11:05:00,
2013-02-13 05:10:00,42.3,41.0,29.82,NW,325,0.0,3.0,95,0.00,,---,0.07,0.00,VWS V14.00,2013-02-13 11:10:00,
2013-02-13 05:15:00,42.1,40.8,29.82,NNW,335,0.0,9.0,95,0.00,,---,0.07,0.00,VWS V14.00,2013-02-13 11:15:00,
2013-02-13 05:20:00,41.9,40.6,29.82,WSW,243,0.0,9.0,95,0.00,,---,0.07,0.00,VWS V14.00,2013-02-13 11:20:00,
2013-02-13 05:25:00,41.8,40.5,29.82,NE,43,0.0,9.0,95,0.00,,---,0.07,0.00,VWS V14.00,2013-02-13 11:25:00,
2013-02-13 05:30:00,41.7,40.4,29.82,WNW,292,0.0,4.0,95,0.00,,---,0.07,0.00,VWS V14.00,2013-02-13 11:30:00,
2013-02-13 05:35:00,41.6,40.3,29.83,NE,35,0.0,6.0,95,0.00,,---,0.07,0.00,VWS V14.00,2013-02-13 11:35:00,
2013-02-13 05:40:00,41.6,40.3,29.83,WSW,250,0.0,6.0,95,0.00,,---,0.07,0.00,VWS V14.00,2013-02-13 11:40:00,
2013-02-13 05:45:00,41.5,40.2,29.83,NNW,333,0.0,9.0,95,0.00,,---,0.07,0.00,VWS V14.00,2013-02-13 11:45:00,
2013-02-13 05:50:00,41.4,40.1,29.83,North,360,0.0,9.0,95,0.00,,---,0.07,0.00,VWS V14.00,2013-02-13 11:50:00,
2013-02-13 05:55:00,41.2,39.9,29.83,NW,322,3.0,11.0,95,0.00,,---,0.07,0.00,VWS V14.00,2013-02-13 11:55:00,
2013-02-13 06:00:00,41.1,39.5,29.83,NE,40,0.0,0.0,94,0.00,,---,0.07,0.00,VWS V14.00,2013-02-13 12:00:00,
2013-02-13 06:05:00,41.0,39.4,29.83,NNW,330,0.0,6.0,94,0.00,,---,0.07,0.00,VWS V14.00,2013-02-13 12:05:00,
2013-02-13 06:10:00,40.9,39.3,29.84,NNE,30,0.0,6.0,94,0.00,,---,0.07,0.00,VWS V14.00,2013-02-13 12:10:00,
2013-02-13 06:15:00,40.9,39.3,29.84,SW,232,2.0,9.0,94,0.00,,---,0.07,0.00,VWS V14.00,2013-02-13 12:15:00,
2013-02-13 06:20:00,40.7,39.1,29.85,WNW,292,0.0,9.0,94,0.00,,---,0.07,0.00,VWS V14.00,2013-02-13 12:20:00,
2013-02-13 06:25:00,40.7,39.1,29.85,ENE,57,0.0,9.0,94,0.00,,---,0.07,0.00,VWS V14.00,2013-02-13 12:25:00,
2013-02-13 06:30:00,40.6,39.0,29.85,WNW,301,0.0,6.0,94,0.00,,---,0.07,0.00,VWS V14.00,2013-02-13 12:30:00,
2013-02-13 06:35:00,40.5,38.9,29.86,East,91,0.0,6.0,94,0.00,,---,0.07,0.00,VWS V14.00,2013-02-13 12:35:00,
2013-02-13 06:40:00,40.4,38.8,29.86,North,5,0.0,6.0,94,0.00,,---,0.07,0.00,VWS V14.00,2013-02-13 12:40:00,
2013-02-13 06:45:00,40.4,38.8,29.86,NNE,29,0.0,6.0,94,0.00,,---,0.07,0.00,VWS V14.00,2013-02-13 12:45:00,
2013-02-13 06:50:00,40.4,38.8,29.87,NW,322,2.0,6.0,94,0.00,,---,0.07,0.00,VWS V14.00,2013-02-13 12:50:00,
2013-02-13 06:55:00,40.3,38.7,29.86,NNW,346,0.0,6.0,94,0.00,,---,0.07,0.00,VWS V14.00,2013-02-13 12:55:00,
2013-02-13 07:00:00,40.3,38.7,29.87,NNW,340,0.0,0.0,94,0.00,,---,0.07,5.00,VWS V14.00,2013-02-13 13:00:00,
2013-02-13 07:05:00,40.4,38.8,29.87,NNE,26,0.0,0.0,94,0.00,,---,0.07,5.00,VWS V14.00,2013-02-13 13:05:00,
2013-02-13 07:10:00,40.4,38.8,29.87,North,355,0.0,0.0,94,0.00,,---,0.07,5.00,VWS V14.00,2013-02-13 13:10:00,
2013-02-13 07:15:00,40.4,38.8,29.88,NNW,334,0.0,1.0,94,0.00,,---,0.07,7.00,VWS V14.00,2013-02-13 13:15:00,
2013-02-13 07:20:00,40.4,38.8,29.88,WNW,294,0.0,1.0,94,0.00,,---,0.07,7.00,VWS V14.00,2013-02-13 13:20:00,
2013-02-13 07:25:00,40.5,38.9,29.88,NW,323,0.0,1.0,94,0.00,,---,0.07,9.00,VWS V14.00,2013-02-13 13:25:00,
2013-02-13 07:30:00,40.5,38.9,29.88,NW,310,0.0,0.0,94,0.00,,---,0.07,18.00,VWS V14.00,2013-02-13 13:30:00,
2013-02-13 07:35:00,40.5,38.9,29.88,NNE,24,0.0,2.0,94,0.00,,---,0.07,26.00,VWS V14.00,2013-02-13 13:35:00,
2013-02-13 07:40:00,40.4,38.8,29.88,NNE,29,0.0,4.0,94,0.00,,---,0.07,33.00,VWS V14.00,2013-02-13 13:40:00,
2013-02-13 07:45:00,40.4,38.8,29.89,NNE,24,0.0,4.0,94,0.00,,---,0.07,30.00,VWS V14.00,2013-02-13 13:45:00,
2013-02-13 07:50:00,40.4,38.8,29.89,North,5,0.0,4.0,94,0.00,,---,0.07,47.00,VWS V14.00,2013-02-13 13:50:00,
2013-02-13 07:55:00,40.5,38.6,29.89,NW,305,0.0,4.0,93,0.00,,---,0.07,69.00,VWS V14.00,2013-02-13 13:55:00,
2013-02-13 08:00:00,40.6,38.7,29.90,NNW,338,0.0,0.0,93,0.00,,---,0.07,62.00,VWS V14.00,2013-02-13 14:00:00,
2013-02-13 08:05:00,40.6,38.7,29.90,North,355,0.0,4.0,93,0.00,,---,0.07,33.00,VWS V14.00,2013-02-13 14:05:00,
2013-02-13 08:10:00,40.7,38.8,29.91,NW,321,0.0,4.0,93,0.00,,---,0.07,32.00,VWS V14.00,2013-02-13 14:10:00,
2013-02-13 08:15:00,40.8,38.9,29.91,NW,323,3.0,4.0,93,0.00,,---,0.07,35.00,VWS V14.00,2013-02-13 14:15:00,
2013-02-13 08:20:00,40.8,38.9,29.92,NNW,343,0.0,4.0,93,0.00,,---,0.07,30.00,VWS V14.00,2013-02-13 14:20:00,
2013-02-13 08:25:00,40.7,38.8,29.92,NW,315,0.0,7.0,93,0.00,,---,0.07,47.00,VWS V14.00,2013-02-13 14:25:00,
2013-02-13 08:30:00,40.8,38.9,29.92,NW,306,0.0,0.0,93,0.00,,---,0.07,33.00,VWS V14.00,2013-02-13 14:30:00,
2013-02-13 08:35:00,40.8,38.9,29.92,NNW,344,0.0,1.0,93,0.00,,---,0.07,40.00,VWS V14.00,2013-02-13 14:35:00,
2013-02-13 08:40:00,40.8,38.9,29.92,NE,38,0.0,9.0,93,0.00,,---,0.07,39.00,VWS V14.00,2013-02-13 14:40:00,
2013-02-13 08:45:00,40.7,38.8,29.92,NNW,327,4.0,9.0,93,0.00,,---,0.07,39.00,VWS V14.00,2013-02-13 14:45:00,
2013-02-13 08:50:00,40.7,38.6,29.93,NNW,327,0.0,9.0,92,0.00,,---,0.07,42.00,VWS V14.00,2013-02-13 14:50:00,
2013-02-13 08:55:00,40.7,38.6,29.93,NNE,33,0.0,9.0,92,0.00,,---,0.07,46.00,VWS V14.00,2013-02-13 14:55:00,
2013-02-13 09:00:00,40.7,38.6,29.93,NW,319,0.0,0.0,92,0.00,,---,0.07,60.00,VWS V14.00,2013-02-13 15:00:00,
2013-02-13 09:05:00,40.8,38.9,29.93,North,355,0.0,0.0,93,0.00,,---,0.07,51.00,VWS V14.00,2013-02-13 15:05:00,
2013-02-13 09:10:00,40.9,39.0,29.94,NW,313,0.0,0.0,93,0.00,,---,0.07,65.00,VWS V14.00,2013-02-13 15:10:00,
2013-02-13 09:15:00,40.9,39.0,29.94,NW,315,0.0,0.0,93,0.00,,---,0.07,53.00,VWS V14.00,2013-02-13 15:15:00,
2013-02-13 09:20:00,40.9,39.0,29.94,WNW,292,0.0,1.0,93,0.00,,---,0.07,56.00,VWS V14.00,2013-02-13 15:20:00,
2013-02-13 09:25:00,40.9,39.0,29.94,NNE,21,0.0,3.0,93,0.00,,---,0.07,84.00,VWS V14.00,2013-02-13 15:25:00,
2013-02-13 09:30:00,40.9,39.0,29.94,NNE,21,0.0,0.0,93,0.00,,---,0.07,83.00,VWS V14.00,2013-02-13 15:30:00,
2013-02-13 09:35:00,41.1,39.2,29.94,NNE,26,0.0,0.0,93,0.00,,---,0.07,83.00,VWS V14.00,2013-02-13 15:35:00,
2013-02-13 09:40:00,41.0,39.1,29.94,North,5,0.0,1.0,93,0.00,,---,0.07,76.00,VWS V14.00,2013-02-13 15:40:00,
2013-02-13 09:45:00,41.0,39.1,29.94,NNE,25,0.0,1.0,93,0.00,,---,0.07,86.00,VWS V14.00,2013-02-13 15:45:00,
2013-02-13 09:50:00,41.1,39.2,29.95,NNE,25,0.0,1.0,93,0.00,,---,0.07,97.00,VWS V14.00,2013-02-13 15:50:00,
2013-02-13 09:55:00,41.2,39.3,29.95,NNW,340,0.0,1.0,93,0.00,,---,0.07,139.00,VWS V14.00,2013-02-13 15:55:00,
2013-02-13 10:00:00,41.3,39.2,29.95,NNE,20,0.0,0.0,92,0.00,,---,0.07,207.00,VWS V14.00,2013-02-13 16:00:00,
2013-02-13 10:05:00,41.5,39.3,29.95,West,279,0.0,4.0,92,0.00,,---,0.07,155.00,VWS V14.00,2013-02-13 16:05:00,
2013-02-13 10:10:00,41.7,39.8,29.96,NW,319,0.0,4.0,93,0.00,,---,0.07,102.00,VWS V14.00,2013-02-13 16:10:00,
2013-02-13 10:15:00,41.7,39.3,29.96,NW,317,0.0,4.0,91,0.00,,---,0.07,84.00,VWS V14.00,2013-02-13 16:15:00,
2013-02-13 10:20:00,41.6,39.2,29.96,West,261,0.0,4.0,91,0.00,,---,0.07,183.00,VWS V14.00,2013-02-13 16:20:00,
2013-02-13 10:25:00,41.8,39.7,29.96,NW,320,0.0,4.0,92,0.00,,---,0.07,262.00,VWS V14.00,2013-02-13 16:25:00,
2013-02-13 10:29:00,42.0,39.8,29.96,NW,311,0.0,0.0,92,0.00,,---,0.07,216.00,VWS V14.00,2013-02-13 16:29:00,
2013-02-13 10:30:00,41.9,39.8,29.96,NW,320,0.0,4.0,92,0.00,,---,0.07,292.00,VWS V14.00,2013-02-13 16:30:00,
2013-02-13 10:34:00,42.3,39.9,29.97,West,269,0.0,4.0,91,0.00,,---,0.07,193.00,VWS V14.00,2013-02-13 16:34:00,
2013-02-13 10:39:00,42.3,39.6,29.97,NNW,348,0.0,5.0,90,0.00,,---,0.07,181.00,VWS V14.00,2013-02-13 16:39:00,
2013-02-13 10:44:00,42.2,39.5,29.97,WNW,302,0.0,9.0,90,0.00,,---,0.07,132.00,VWS V14.00,2013-02-13 16:44:00,
2013-02-13 10:49:00,42.3,39.6,29.98,West,279,2.0,9.0,90,0.00,,---,0.07,149.00,VWS V14.00,2013-02-13 16:49:00,
2013-02-13 10:54:00,42.3,39.6,29.98,West,261,5.0,9.0,90,0.00,,---,0.07,167.00,VWS V14.00,2013-02-13 16:54:00,
2013-02-13 10:59:00,42.3,39.6,29.98,WSW,254,2.0,5.0,90,0.00,,---,0.07,114.00,VWS V14.00,2013-02-13 16:59:00,
2013-02-13 11:00:00,42.3,39.3,29.98,West,267,0.0,9.0,89,0.00,,---,0.07,132.00,VWS V14.00,2013-02-13 17:00:00,
2013-02-13 11:04:00,42.3,39.3,29.98,WNW,302,3.0,5.0,89,0.00,,---,0.07,114.00,VWS V14.00,2013-02-13 17:04:00,
2013-02-13 11:09:00,42.3,39.3,29.99,NNW,346,0.0,5.0,89,0.00,,---,0.07,97.00,VWS V14.00,2013-02-13 17:09:00,
2013-02-13 11:14:00,42.4,39.4,29.99,NNW,338,0.0,5.0,89,0.00,,---,0.07,49.00,VWS V14.00,2013-02-13 17:14:00,
2013-02-13 11:19:00,42.3,39.0,29.99,North,351,0.0,7.0,88,0.00,,---,0.07,49.00,VWS V14.00,2013-02-13 17:19:00,
2013-02-13 11:24:00,42.1,38.8,29.99,North,11,0.0,7.0,88,0.00,,---,0.07,58.00,VWS V14.00,2013-02-13 17:24:00,
2013-02-13 11:29:00,42.0,38.7,29.99,WSW,237,4.0,4.0,88,0.00,,---,0.07,63.00,VWS V14.00,2013-02-13 17:29:00,
2013-02-13 11:30:00,42.0,39.0,29.99,NW,312,0.0,7.0,89,0.00,,---,0.07,63.00,VWS V14.00,2013-02-13 17:30:00,
2013-02-13 11:34:00,41.9,38.6,29.99,NW,313,0.0,9.0,88,0.00,,---,0.07,70.00,VWS V14.00,2013-02-13 17:34:00,
2013-02-13 11:39:00,41.9,38.9,29.99,North,10,0.0,9.0,89,0.00,,---,0.07,70.00,VWS V14.00,2013-02-13 17:39:00,
2013-02-13 11:44:00,41.9,38.9,29.99,NW,319,0.0,9.0,89,0.00,,---,0.07,158.00,VWS V14.00,2013-02-13 17:44:00,
2013-02-13 11:49:00,42.0,39.0,29.99,North,5,0.0,9.0,89,0.00,,---,0.07,77.00,VWS V14.00,2013-02-13 17:49:00,
2013-02-13 11:54:00,42.1,39.1,29.99,NNW,342,1.0,9.0,89,0.00,,---,0.07,60.00,VWS V14.00,2013-02-13 17:54:00,
2013-02-13 11:59:00,42.0,38.7,29.98,WNW,296,0.0,4.0,88,0.00,,---,0.07,63.00,VWS V14.00,2013-02-13 17:59:00,
2013-02-13 12:00:00,42.1,38.8,29.98,West,259,0.0,5.0,88,0.00,,---,0.07,54.00,VWS V14.00,2013-02-13 18:00:00,
2013-02-13 12:05:00,41.9,38.6,29.99,NW,326,0.0,4.0,88,0.00,,---,0.07,53.00,VWS V14.00,2013-02-13 18:05:00,
2013-02-13 12:10:00,41.9,38.6,29.99,NW,317,0.0,6.0,88,0.00,,---,0.07,39.00,VWS V14.00,2013-02-13 18:10:00,
2013-02-13 12:14:00,41.8,38.8,29.99,NW,321,0.0,6.0,89,0.00,,---,0.07,37.00,VWS V14.00,2013-02-13 18:14:00,
2013-02-13 12:19:00,41.8,38.8,29.99,NW,313,0.0,6.0,89,0.00,,---,0.07,32.00,VWS V14.00,2013-02-13 18:19:00,
2013-02-13 12:24:00,41.8,38.8,29.99,NW,321,0.0,6.0,89,0.00,,---,0.07,42.00,VWS V14.00,2013-02-13 18:24:00,
2013-02-13 12:29:00,41.7,38.7,29.99,NNE,30,0.0,5.0,89,0.00,,---,0.07,65.00,VWS V14.00,2013-02-13 18:29:00,
2013-02-13 12:30:00,41.7,38.7,29.99,NW,323,0.0,6.0,89,0.00,,---,0.07,54.00,VWS V14.00,2013-02-13 18:30:00,
2013-02-13 12:34:00,41.8,38.8,29.99,WNW,290,0.0,5.0,89,0.00,,---,0.07,127.00,VWS V14.00,2013-02-13 18:34:00,
2013-02-13 12:39:00,41.9,38.9,29.98,WSW,244,0.0,5.0,89,0.00,,---,0.07,83.00,VWS V14.00,2013-02-13 18:39:00,
2013-02-13 12:44:00,42.0,39.0,29.98,WNW,298,0.0,5.0,89,0.00,,---,0.07,74.00,VWS V14.00,2013-02-13 18:44:00,
2013-02-13 12:49:00,42.0,38.7,29.98,WSW,240,0.0,5.0,88,0.00,,---,0.07,63.00,VWS V14.00,2013-02-13 18:49:00,
2013-02-13 12:54:00,42.1,38.8,29.98,West,271,0.0,5.0,88,0.00,,---,0.07,47.00,VWS V14.00,2013-02-13 18:54:00,
2013-02-13 12:59:00,42.1,38.8,29.98,NNW,342,0.0,1.0,88,0.00,,---,0.07,62.00,VWS V14.00,2013-02-13 18:59:00,
2013-02-13 13:00:00,42.1,38.8,29.98,West,259,0.0,5.0,88,0.00,,---,0.07,54.00,VWS V14.00,2013-02-13 19:00:00,
2013-02-13 13:04:00,42.1,38.8,29.97,NW,309,0.0,7.0,88,0.00,,---,0.07,51.00,VWS V14.00,2013-02-13 19:04:00,
2013-02-13 13:09:00,42.1,38.8,29.97,NE,46,0.0,8.0,88,0.00,,---,0.07,46.00,VWS V14.00,2013-02-13 19:09:00,
2013-02-13 13:14:00,42.1,39.1,29.97,West,274,1.0,8.0,89,0.00,,---,0.07,46.00,VWS V14.00,2013-02-13 19:14:00,
2013-02-13 13:19:00,42.1,39.1,29.97,NW,307,0.0,8.0,89,0.00,,---,0.07,42.00,VWS V14.00,2013-02-13 19:19:00,
2013-02-13 13:24:00,42.0,39.0,29.97,NW,317,0.0,8.0,89,0.00,,---,0.07,37.00,VWS V14.00,2013-02-13 19:24:00,
2013-02-13 13:29:00,42.0,39.0,29.97,WSW,252,5.0,5.0,89,0.00,,---,0.07,39.00,VWS V14.00,2013-02-13 19:29:00,
2013-02-13 13:30:00,42.0,39.0,29.97,NNE,26,0.0,8.0,89,0.00,,---,0.07,37.00,VWS V14.00,2013-02-13 19:30:00,
2013-02-13 13:34:00,42.0,39.0,29.97,North,350,0.0,5.0,89,0.00,,---,0.07,46.00,VWS V14.00,2013-02-13 19:34:00,
2013-02-13 13:39:00,41.9,39.2,29.97,NNW,331,2.0,6.0,90,0.00,,---,0.07,54.00,VWS V14.00,2013-02-13 19:39:00,
2013-02-13 13:44:00,41.9,39.2,29.97,NNW,339,0.0,6.0,90,0.00,,---,0.07,67.00,VWS V14.00,2013-02-13 19:44:00,
2013-02-13 13:49:00,41.9,39.2,29.96,NW,313,0.0,6.0,90,0.00,,---,0.07,100.00,VWS V14.00,2013-02-13 19:49:00,
2013-02-13 13:54:00,41.9,39.2,29.97,NW,313,0.0,6.0,90,0.00,,---,0.07,146.00,VWS V14.00,2013-02-13 19:54:00,
2013-02-13 13:59:00,42.1,39.7,29.96,NW,313,0.0,0.0,91,0.00,,---,0.07,236.00,VWS V14.00,2013-02-13 19:59:00,
2013-02-13 14:00:00,43.9,40.0,29.95,NNE,17,0.0,2.0,86,0.00,,---,0.07,183.00,VWS V14.00,2013-02-13 20:00:00,
2013-02-13 14:04:00,42.5,40.1,29.96,WSW,257,0.0,2.0,91,0.00,,---,0.07,199.00,VWS V14.00,2013-02-13 20:04:00,
2013-02-13 14:09:00,42.6,39.6,29.96,North,350,0.0,2.0,89,0.00,,---,0.07,132.00,VWS V14.00,2013-02-13 20:09:00,
2013-02-13 14:14:00,42.7,39.7,29.96,West,267,0.0,2.0,89,0.00,,---,0.07,105.00,VWS V14.00,2013-02-13 20:14:00,
2013-02-13 14:19:00,42.7,39.4,29.96,NW,315,0.0,5.0,88,0.00,,---,0.07,134.00,VWS V14.00,2013-02-13 20:19:00,
2013-02-13 14:24:00,42.7,39.7,29.96,NW,319,0.0,5.0,89,0.00,,---,0.07,127.00,VWS V14.00,2013-02-13 20:24:00,
2013-02-13 14:29:00,42.8,39.8,29.96,WSW,239,0.0,2.0,89,0.00,,---,0.07,188.00,VWS V14.00,2013-02-13 20:29:00,
2013-02-13 14:30:00,42.8,39.5,29.96,NNW,338,0.0,5.0,88,0.00,,---,0.07,172.00,VWS V14.00,2013-02-13 20:30:00,
2013-02-13 14:34:00,43.0,39.7,29.96,NNW,342,0.0,2.0,88,0.00,,---,0.07,274.00,VWS V14.00,2013-02-13 20:34:00,
2013-02-13 14:39:00,43.3,40.3,29.96,WNW,302,0.0,2.0,89,0.00,,---,0.07,329.00,VWS V14.00,2013-02-13 20:39:00,
2013-02-13 14:44:00,43.6,40.0,29.95,NW,304,0.0,2.0,87,0.00,,---,0.07,167.00,VWS V14.00,2013-02-13 20:44:00,
2013-02-13 14:49:00,43.7,39.8,29.95,North,355,0.0,2.0,86,0.00,,---,0.07,181.00,VWS V14.00,2013-02-13 20:49:00,
2013-02-13 14:54:00,43.9,40.0,29.95,NNE,20,0.0,2.0,86,0.00,,---,0.07,174.00,VWS V14.00,2013-02-13 20:54:00,
2013-02-13 14:59:00,43.9,40.0,29.95,NNE,17,0.0,0.0,86,0.00,,---,0.07,183.00,VWS V14.00,2013-02-13 20:59:00,
2013-02-13 15:00:00,43.9,40.0,29.95,NNE,17,0.0,2.0,86,0.00,,---,0.07,183.00,VWS V14.00,2013-02-13 21:00:00,
2013-02-13 15:04:00,44.2,40.6,29.95,WNW,299,0.0,0.0,87,0.00,,---,0.07,151.00,VWS V14.00,2013-02-13 21:04:00,
2013-02-13 15:09:00,44.3,40.1,29.95,WNW,302,0.0,0.0,85,0.00,,---,0.07,98.00,VWS V14.00,2013-02-13 21:09:00,
2013-02-13 15:14:00,44.3,39.8,29.95,West,271,0.0,3.0,84,0.00,,---,0.07,149.00,VWS V14.00,2013-02-13 21:14:00,
2013-02-13 15:19:00,44.4,39.9,29.95,West,271,0.0,3.0,84,0.00,,---,0.07,213.00,VWS V14.00,2013-02-13 21:19:00,
2013-02-13 15:24:00,44.6,40.4,29.95,West,271,0.0,3.0,85,0.00,,---,0.07,287.00,VWS V14.00,2013-02-13 21:24:00,
2013-02-13 15:29:00,44.9,40.7,29.95,West,266,0.0,0.0,85,0.00,,---,0.07,221.00,VWS V14.00,2013-02-13 21:29:00,
2013-02-13 15:30:00,44.8,40.6,29.95,West,266,0.0,3.0,85,0.00,,---,0.07,237.00,VWS V14.00,2013-02-13 21:30:00,
2013-02-13 15:34:00,45.3,40.8,29.95,West,259,0.0,4.0,84,0.00,,---,0.07,309.00,VWS V14.00,2013-02-13 21:34:00,
2013-02-13 15:39:00,45.5,40.7,29.95,West,259,0.0,4.0,83,0.00,,---,0.07,100.00,VWS V14.00,2013-02-13 21:39:00,
2013-02-13 15:44:00,45.5,40.3,29.96,West,261,0.0,4.0,82,0.00,,---,0.07,105.00,VWS V14.00,2013-02-13 21:44:00,
2013-02-13 15:49:00,45.5,40.0,29.96,West,273,0.0,4.0,81,0.00,,---,0.07,107.00,VWS V14.00,2013-02-13 21:49:00,
2013-02-13 15:54:00,45.5,40.3,29.95,West,273,0.0,4.0,82,0.00,,---,0.07,98.00,VWS V14.00,2013-02-13 21:54:00,
2013-02-13 15:59:00,45.5,40.0,29.95,WNW,298,0.0,0.0,81,0.00,,---,0.07,109.00,VWS V14.00,2013-02-13 21:59:00,
2013-02-13 16:00:00,45.5,40.0,29.95,NW,307,0.0,4.0,81,0.00,,---,0.07,98.00,VWS V14.00,2013-02-13 22:00:00,
2013-02-13 16:04:00,45.5,40.0,29.95,WNW,292,0.0,0.0,81,0.00,,---,0.07,128.00,VWS V14.00,2013-02-13 22:04:00,
2013-02-13 16:09:00,45.5,40.0,29.96,West,267,2.0,4.0,81,0.00,,---,0.07,125.00,VWS V14.00,2013-02-13 22:09:00,
2013-02-13 16:14:00,45.4,39.9,29.96,WSW,244,0.0,5.0,81,0.00,,---,0.07,84.00,VWS V14.00,2013-02-13 22:14:00,
2013-02-13 16:19:00,45.4,39.9,29.96,WSW,248,0.0,5.0,81,0.00,,---,0.07,72.00,VWS V14.00,2013-02-13 22:19:00,
2013-02-13 16:24:00,45.3,39.8,29.96,West,266,0.0,5.0,81,0.00,,---,0.07,63.00,VWS V14.00,2013-02-13 22:24:00,
2013-02-13 16:29:00,45.3,39.8,29.96,West,266,0.0,0.0,81,0.00,,---,0.07,51.00,VWS V14.00,2013-02-13 22:29:00,
2013-02-13 16:30:00,45.3,39.8,29.96,West,266,0.0,5.0,81,0.00,,---,0.07,56.00,VWS V14.00,2013-02-13 22:30:00,
2013-02-13 16:34:00,45.2,39.7,29.96,West,263,0.0,0.0,81,0.00,,---,0.07,46.00,VWS V14.00,2013-02-13 22:34:00,
2013-02-13 16:39:00,45.2,40.0,29.96,West,263,0.0,0.0,82,0.00,,---,0.07,33.00,VWS V14.00,2013-02-13 22:39:00,
2013-02-13 16:44:00,45.1,39.6,29.96,West,269,0.0,4.0,81,0.00,,---,0.07,32.00,VWS V14.00,2013-02-13 22:44:00,
2013-02-13 16:49:00,45.0,39.8,29.96,WSW,257,0.0,4.0,82,0.00,,---,0.07,39.00,VWS V14.00,2013-02-13 22:49:00,
2013-02-13 16:54:00,45.0,39.8,29.96,WSW,257,0.0,4.0,82,0.00,,---,0.07,30.00,VWS V14.00,2013-02-13 22:54:00,
2013-02-13 16:59:00,45.0,39.8,29.96,WSW,258,0.0,0.0,82,0.00,,---,0.07,23.00,VWS V14.00,2013-02-13 22:59:00,
2013-02-13 17:00:00,45.0,39.8,29.96,WSW,257,0.0,4.0,82,0.00,,---,0.07,26.00,VWS V14.00,2013-02-13 23:00:00,
2013-02-13 17:04:00,45.0,40.2,29.96,SSW,196,0.0,0.0,83,0.00,,---,0.07,16.00,VWS V14.00,2013-02-13 23:04:00,
2013-02-13 17:09:00,44.9,40.1,29.97,WSW,245,0.0,5.0,83,0.00,,---,0.07,14.00,VWS V14.00,2013-02-13 23:09:00,
2013-02-13 17:14:00,44.9,40.1,29.97,SW,227,2.0,5.0,83,0.00,,---,0.07,14.00,VWS V14.00,2013-02-13 23:14:00,
2013-02-13 17:19:00,44.7,39.9,29.97,WSW,255,0.0,5.0,83,0.00,,---,0.07,12.00,VWS V14.00,2013-02-13 23:19:00,
2013-02-13 17:24:00,44.7,39.9,29.97,SW,231,0.0,5.0,83,0.00,,---,0.07,11.00,VWS V14.00,2013-02-13 23:24:00,
2013-02-13 17:29:00,44.6,39.8,29.97,WSW,241,0.0,0.0,83,0.00,,---,0.07,7.00,VWS V14.00,2013-02-13 23:29:00,
2013-02-13 17:30:00,44.6,39.8,29.97,WSW,241,0.0,5.0,83,0.00,,---,0.07,11.00,VWS V14.00,2013-02-13 23:30:00,
2013-02-13 17:34:00,44.5,39.7,29.97,WSW,241,0.0,0.0,83,0.00,,---,0.07,5.00,VWS V14.00,2013-02-13 23:34:00,
2013-02-13 17:39:00,44.5,39.7,29.97,WSW,241,0.0,0.0,83,0.00,,---,0.07,0.00,VWS V14.00,2013-02-13 23:39:00,
2013-02-13 17:44:00,44.4,39.6,29.97,WSW,241,0.0,0.0,83,0.00,,---,0.07,0.00,VWS V14.00,2013-02-13 23:44:00,
2013-02-13 17:49:00,44.4,39.6,29.98,WSW,241,0.0,0.0,83,0.00,,---,0.07,0.00,VWS V14.00,2013-02-13 23:49:00,
2013-02-13 17:54:00,44.4,39.6,29.98,WSW,241,0.0,0.0,83,0.00,,---,0.07,0.00,VWS V14.00,2013-02-13 23:54:00,
2013-02-13 17:59:00,44.3,39.5,29.98,SW,229,3.0,3.0,83,0.00,,---,0.07,0.00,VWS V14.00,2013-02-13 23:59:00,
2013-02-13 18:00:00,44.3,39.5,29.98,WSW,242,0.0,4.0,83,0.00,,---,0.07,0.00,VWS V14.00,2013-02-14 00:00:00,
2013-02-13 18:04:00,44.3,39.5,29.99,SW,229,0.0,3.0,83,0.00,,---,0.07,0.00,VWS V14.00,2013-02-14 00:04:00,
2013-02-13 18:09:00,44.2,39.7,29.99,SW,229,0.0,3.0,84,0.00,,---,0.07,0.00,VWS V14.00,2013-02-14 00:09:00,
2013-02-13 18:14:00,44.2,39.7,29.98,SW,230,0.0,3.0,84,0.00,,---,0.07,0.00,VWS V14.00,2013-02-14 00:14:00,
2013-02-13 18:19:00,44.2,39.7,29.98,SW,226,0.0,3.0,84,0.00,,---,0.07,0.00,VWS V14.00,2013-02-14 00:19:00,
2013-02-13 18:24:00,44.2,40.0,29.98,SW,226,0.0,3.0,85,0.00,,---,0.07,0.00,VWS V14.00,2013-02-14 00:24:00,
2013-02-13 18:29:00,44.2,40.0,29.98,SW,226,0.0,0.0,85,0.00,,---,0.07,0.00,VWS V14.00,2013-02-14 00:29:00,
2013-02-13 18:30:00,44.2,40.0,29.98,SW,226,0.0,3.0,85,0.00,,---,0.07,0.00,VWS V14.00,2013-02-14 00:30:00,
2013-02-13 18:34:00,44.2,40.0,29.98,SW,226,0.0,0.0,85,0.00,,---,0.07,0.00,VWS V14.00,2013-02-14 00:34:00,
2013-02-13 18:39:00,44.1,39.9,29.98,SSW,200,0.0,0.0,85,0.00,,---,0.07,0.00,VWS V14.00,2013-02-14 00:39:00,
2013-02-13 18:44:00,44.1,39.6,29.98,SSW,200,0.0,0.0,84,0.00,,---,0.07,0.00,VWS V14.00,2013-02-14 00:44:00,
2013-02-13 18:49:00,44.1,39.9,29.98,SSW,200,0.0,0.0,85,0.00,,---,0.07,0.00,VWS V14.00,2013-02-14 00:49:00,
2013-02-13 18:54:00,44.1,39.9,29.98,SSW,200,0.0,0.0,85,0.00,,---,0.07,0.00,VWS V14.00,2013-02-14 00:54:00,
2013-02-13 18:59:00,44.0,39.8,29.98,SSW,200,0.0,0.0,85,0.00,,---,0.07,0.00,VWS V14.00,2013-02-14 00:59:00,
2013-02-13 19:00:00,44.0,39.8,29.99,SSW,200,0.0,0.0,85,0.00,,---,0.07,0.00,VWS V14.00,2013-02-14 01:00:00,
2013-02-13 19:04:00,44.0,39.8,29.98,SSW,200,0.0,0.0,85,0.00,,---,0.07,0.00,VWS V14.00,2013-02-14 01:04:00,
2013-02-13 19:09:00,43.8,39.6,29.99,SSW,200,0.0,0.0,85,0.00,,---,0.07,0.00,VWS V14.00,2013-02-14 01:09:00,
2013-02-13 19:14:00,43.6,39.7,29.99,SSW,200,0.0,0.0,86,0.00,,---,0.07,0.00,VWS V14.00,2013-02-14 01:14:00,
2013-02-13 19:19:00,43.6,39.7,29.99,SSW,200,0.0,0.0,86,0.00,,---,0.07,0.00,VWS V14.00,2013-02-14 01:19:00,
2013-02-13 19:24:00,43.5,39.6,29.99,SSW,200,0.0,2.0,86,0.00,,---,0.07,0.00,VWS V14.00,2013-02-14 01:24:00,
2013-02-13 19:29:00,43.5,39.3,29.99,SSW,193,0.0,0.0,85,0.00,,---,0.07,0.00,VWS V14.00,2013-02-14 01:29:00,
2013-02-13 19:30:00,43.5,39.3,29.99,SSW,193,0.0,2.0,85,0.00,,---,0.07,0.00,VWS V14.00,2013-02-14 01:30:00,
2013-02-13 19:34:00,43.4,39.5,29.99,South,190,0.0,2.0,86,0.00,,---,0.07,0.00,VWS V14.00,2013-02-14 01:34:00,
2013-02-13 19:39:00,43.3,39.4,29.99,South,189,0.0,2.0,86,0.00,,---,0.07,0.00,VWS V14.00,2013-02-14 01:39:00,
2013-02-13 19:44:00,43.1,39.2,29.99,South,189,0.0,2.0,86,0.00,,---,0.07,0.00,VWS V14.00,2013-02-14 01:44:00,
2013-02-13 19:49:00,42.9,39.0,29.99,South,189,0.0,2.0,86,0.00,,---,0.07,0.00,VWS V14.00,2013-02-14 01:49:00,
2013-02-13 19:54:00,42.8,38.9,29.99,South,189,0.0,2.0,86,0.00,,---,0.07,0.00,VWS V14.00,2013-02-14 01:54:00,
2013-02-13 19:59:00,42.5,38.6,29.99,South,189,0.0,0.0,86,0.00,,---,0.07,0.00,VWS V14.00,2013-02-14 01:59:00,
2013-02-13 20:00:00,42.6,38.7,29.99,South,189,0.0,2.0,86,0.00,,---,0.07,0.00,VWS V14.00,2013-02-14 02:00:00,
2013-02-13 20:04:00,42.4,38.8,29.99,South,189,0.0,0.0,87,0.00,,---,0.07,0.00,VWS V14.00,2013-02-14 02:04:00,
2013-02-13 20:09:00,42.3,38.7,29.99,South,189,0.0,0.0,87,0.00,,---,0.07,0.00,VWS V14.00,2013-02-14 02:09:00,
2013-02-13 20:14:00,42.3,38.7,30.00,South,189,0.0,0.0,87,0.00,,---,0.07,0.00,VWS V14.00,2013-02-14 02:14:00,
2013-02-13 20:19:00,42.2,38.6,29.99,South,189,0.0,0.0,87,0.00,,---,0.07,0.00,VWS V14.00,2013-02-14 02:19:00,
2013-02-13 20:24:00,42.2,38.6,30.00,South,189,0.0,0.0,87,0.00,,---,0.07,0.00,VWS V14.00,2013-02-14 02:24:00,
2013-02-13 20:29:00,42.0,38.4,30.00,South,189,0.0,0.0,87,0.00,,---,0.07,0.00,VWS V14.00,2013-02-14 02:29:00,
2013-02-13 20:30:00,42.1,38.5,30.00,South,189,0.0,0.0,87,0.00,,---,0.07,0.00,VWS V14.00,2013-02-14 02:30:00,
2013-02-13 20:34:00,41.9,38.6,30.00,South,189,0.0,0.0,88,0.00,,---,0.07,0.00,VWS V14.00,2013-02-14 02:34:00,
2013-02-13 20:39:00,41.8,38.5,29.99,South,189,0.0,0.0,88,0.00,,---,0.07,0.00,VWS V14.00,2013-02-14 02:39:00,
2013-02-13 20:44:00,41.6,38.0,30.00,South,189,0.0,0.0,87,0.00,,---,0.07,0.00,VWS V14.00,2013-02-14 02:44:00,
2013-02-13 20:49:00,41.4,38.1,29.99,South,180,1.0,2.0,88,0.00,,---,0.07,0.00,VWS V14.00,2013-02-14 02:49:00,
2013-02-13 20:54:00,41.3,38.0,30.00,South,180,0.0,2.0,88,0.00,,---,0.07,0.00,VWS V14.00,2013-02-14 02:54:00,
2013-02-13 20:59:00,41.2,37.9,30.00,South,187,0.0,0.0,88,0.00,,---,0.07,0.00,VWS V14.00,2013-02-14 02:59:00,
2013-02-13 21:00:00,41.3,38.0,30.00,South,187,0.0,2.0,88,0.00,,---,0.07,0.00,VWS V14.00,2013-02-14 03:00:00,
2013-02-13 21:04:00,41.1,37.8,30.00,SSW,194,0.0,0.0,88,0.00,,---,0.07,0.00,VWS V14.00,2013-02-14 03:04:00,
2013-02-13 21:09:00,41.0,37.7,30.00,SSW,194,0.0,0.0,88,0.00,,---,0.07,0.00,VWS V14.00,2013-02-14 03:09:00,
2013-02-13 21:14:00,40.9,37.6,30.00,SSW,194,0.0,0.0,88,0.00,,---,0.07,0.00,VWS V14.00,2013-02-14 03:14:00,
2013-02-13 21:19:00,40.9,37.9,30.00,SSW,194,0.0,4.0,89,0.00,,---,0.07,0.00,VWS V14.00,2013-02-14 03:19:00,
2013-02-13 21:24:00,41.0,38.0,30.00,SSW,202,4.0,5.0,89,0.00,,---,0.07,0.00,VWS V14.00,2013-02-14 03:24:00,
2013-02-13 21:29:00,41.1,38.1,30.00,SSW,194,0.0,4.0,89,0.00,,---,0.08,0.00,VWS V14.00,2013-02-14 03:29:00,
2013-02-13 21:30:00,41.1,38.1,30.00,SSW,202,0.0,7.0,89,0.00,,---,0.08,0.00,VWS V14.00,2013-02-14 03:30:00,
2013-02-13 21:34:00,41.1,38.1,30.00,South,179,4.0,6.0,89,0.00,,---,0.08,0.00,VWS V14.00,2013-02-14 03:34:00,
2013-02-13 21:39:00,41.0,38.0,30.00,South,180,0.0,6.0,89,0.00,,---,0.08,0.00,VWS V14.00,2013-02-14 03:39:00,
2013-02-13 21:44:00,41.0,38.0,30.00,South,186,0.0,6.0,89,0.00,,---,0.08,0.00,VWS V14.00,2013-02-14 03:44:00,
2013-02-13 21:49:00,40.9,37.9,30.00,South,182,0.0,6.0,89,0.00,,---,0.08,0.00,VWS V14.00,2013-02-14 03:49:00,
2013-02-13 21:54:00,40.9,37.9,30.00,South,186,3.0,6.0,89,0.00,,---,0.08,0.00,VWS V14.00,2013-02-14 03:54:00,
2013-02-13 21:59:00,40.8,37.8,30.00,South,184,0.0,0.0,89,0.00,,---,0.08,0.00,VWS V14.00,2013-02-14 03:59:00,
2013-02-13 22:00:00,40.8,37.8,30.00,South,184,0.0,6.0,89,0.00,,---,0.08,0.00,VWS V14.00,2013-02-14 04:00:00,
2013-02-13 22:04:00,40.6,37.6,30.01,South,179,0.0,5.0,89,0.00,,---,0.08,0.00,VWS V14.00,2013-02-14 04:04:00,
2013-02-13 22:09:00,40.5,37.5,30.01,South,175,2.0,5.0,89,0.00,,---,0.08,0.00,VWS V14.00,2013-02-14 04:09:00,
2013-02-13 22:14:00,40.4,37.7,30.01,South,184,0.0,5.0,90,0.00,,---,0.08,0.00,VWS V14.00,2013-02-14 04:14:00,
2013-02-13 22:19:00,40.2,37.5,30.01,South,181,0.0,5.0,90,0.00,,---,0.08,0.00,VWS V14.00,2013-02-14 04:19:00,
2013-02-13 22:23:00,40.2,37.5,30.01,SSW,203,0.0,5.0,90,0.00,,---,0.08,0.00,VWS V14.00,2013-02-14 04:23:00,
2013-02-13 22:28:00,40.1,37.4,30.01,South,178,0.0,0.0,90,0.00,,---,0.08,0.00,VWS V14.00,2013-02-14 04:28:00,
2013-02-13 22:30:00,40.1,37.4,30.01,South,182,0.0,5.0,90,0.00,,---,0.08,0.00,VWS V14.00,2013-02-14 04:30:00,
2013-02-13 22:33:00,40.0,37.3,30.01,SSW,209,0.0,5.0,90,0.00,,---,0.08,0.00,VWS V14.00,2013-02-14 04:33:00,
2013-02-13 22:38:00,40.0,37.3,30.02,South,172,0.0,5.0,90,0.00,,---,0.08,0.00,VWS V14.00,2013-02-14 04:38:00,
2013-02-13 22:43:00,39.8,37.1,30.02,South,184,0.0,5.0,90,0.00,,---,0.08,0.00,VWS V14.00,2013-02-14 04:43:00,
2013-02-13 22:48:00,39.8,37.1,30.02,SSW,192,0.0,5.0,90,0.00,,---,0.08,0.00,VWS V14.00,2013-02-14 04:48:00,
2013-02-13 22:53:00,39.7,37.0,30.02,SSW,192,0.0,5.0,90,0.00,,---,0.08,0.00,VWS V14.00,2013-02-14 04:53:00,
2013-02-13 22:58:00,39.7,37.0,30.02,South,185,0.0,0.0,90,0.00,,---,0.08,0.00,VWS V14.00,2013-02-14 04:58:00,
2013-02-13 23:00:00,39.6,36.9,30.02,South,185,0.0,0.0,90,0.00,,---,0.08,0.00,VWS V14.00,2013-02-14 05:00:00,
2013-02-13 23:05:00,39.5,36.8,30.02,South,185,0.0,0.0,90,0.00,,---,0.08,0.00,VWS V14.00,2013-02-14 05:05:00,
2013-02-13 23:10:00,39.4,37.0,30.02,SSW,195,0.0,0.0,91,0.00,,---,0.08,0.00,VWS V14.00,2013-02-14 05:10:00,
2013-02-13 23:15:00,39.4,37.0,30.02,South,188,2.0,4.0,91,0.00,,---,0.08,0.00,VWS V14.00,2013-02-14 05:15:00,
2013-02-13 23:20:00,39.4,37.0,30.02,South,188,0.0,4.0,91,0.00,,---,0.08,0.00,VWS V14.00,2013-02-14 05:20:00,
2013-02-13 23:25:00,39.3,36.9,30.02,South,184,0.0,4.0,91,0.00,,---,0.08,0.00,VWS V14.00,2013-02-14 05:25:00,
2013-02-13 23:30:00,39.2,36.8,30.02,South,190,0.0,4.0,91,0.00,,---,0.08,0.00,VWS V14.00,2013-02-14 05:30:00,
2013-02-13 23:35:00,39.2,36.8,30.02,South,190,5.0,5.0,91,0.00,,---,0.08,0.00,VWS V14.00,2013-02-14 05:35:00,
2013-02-13 23:40:00,39.2,36.8,30.02,SSW,194,0.0,5.0,91,0.00,,---,0.08,0.00,VWS V14.00,2013-02-14 05:40:00,
2013-02-13 23:45:00,39.1,36.7,30.02,South,182,0.0,5.0,91,0.00,,---,0.08,0.00,VWS V14.00,2013-02-14 05:45:00,
2013-02-13 23:50:00,39.1,36.7,30.02,South,189,0.0,5.0,91,0.00,,---,0.08,0.00,VWS V14.00,2013-02-14 05:50:00,
2013-02-13 23:55:00,39.0,36.6,30.02,SSW,193,0.0,5.0,91,0.00,,---,0.08,0.00,VWS V14.00,2013-02-14 05:55:00,